Flag for Germany Weather past 2 weeks in Helmstedt, Lower Saxony, Germany

Now
55 °F

Clear.


Feels Like: 55 °F
Forecast: 65 / 89 °F
Wind: 2 mph from Northwest

Location: Magdeburg

Current Time: Aug 3, 2015 at 5:31:37 AM

Latest Report: Aug 3, 2015 at 5:00 AM


Visibility: 14 mi

Pressure: 30.11 "Hg

Humidity: 88%

Dew point: 52 °F

Location of HelmstedtLocation

Historic Weather in Helmstedt — Graph

°F

Helmstedt temperature yesterday

Maximum temperature yesterday: 82 °F (at 4:00 PM)
Minimum temperature yesterday: 53 °F (at 6:00 AM)
Average temperature yesterday: 71 °F

Past Weeks' High & Low Weather Summary

 TemperatureHumidityPressure
High86 °F (Jul 22, 4:00 PM)97% (Jul 19, 10:00 AM)30.13 "Hg (Jul 19, 10:00 AM)
Low47 °F (Aug 1, 3:00 AM)30% (Aug 1, 6:00 PM)29.54 "Hg (Jul 25, 2:00 PM)
Average66 °F65%29.87 "Hg
* Reported Jul 19 4:00 AM — Aug 3 4:00 AM, Helmstedt, Weather by CustomWeather, © 2015

Note: Actual official high and low records may vary slightly from our data, if they occured in-between our weather recording intervals... More about our weather records

Advertising

Helmstedt weather history for previous 24 hours

 ConditionsComfort  
Time TempWeatherWind HumidityBarometerVisibility
4:00 AM
Mon, Aug 3
55 °FClear.1 mph86%30.11 "Hg16 mi
3:00 AM57 °FClear.2 mph76%30.12 "Hg22 mi
2:00 AM59 °FClear.1 mph72%30.12 "Hg28 mi
1:00 AM59 °FClear.1 mph73%30.13 "Hg31 mi
10:00 PM
Sun, Aug 2
67 °FPassing clouds.2 mph53%30.11 "Hg31 mi
9:00 PM71 °FScattered clouds.2 mph46%30.10 "Hg34 mi
8:00 PM76 °FScattered clouds.2 mph38%30.09 "Hg40 mi
7:00 PM81 °FOvercast.1 mph32%30.09 "Hg37 mi
6:00 PM81 °FOvercast.2 mph31%30.09 "Hg34 mi
5:00 PM82 °FPartly sunny.3 mph32%30.09 "Hg31 mi
4:00 PM82 °FPartly sunny.2 mph33%30.10 "Hg31 mi
3:00 PM81 °FScattered clouds.2 mph34%30.11 "Hg31 mi
2:00 PM80 °FScattered clouds.2 mph36%30.11 "Hg31 mi
1:00 PM78 °FPassing clouds.2 mph39%30.12 "Hg31 mi
12:00 PM77 °FPassing clouds.2 mph42%30.12 "Hg31 mi
11:00 AM74 °FScattered clouds.3 mph46%30.12 "Hg31 mi
10:00 AM72 °FPassing clouds.2 mph52%30.11 "Hg25 mi
9:00 AM67 °FSunny.2 mph61%30.10 "Hg25 mi
8:00 AM62 °FPassing clouds.2 mph68%30.09 "Hg22 mi
7:00 AM56 °FPassing clouds.1 mph80%30.08 "Hg22 mi
6:00 AM53 °FScattered clouds.2 mph87%30.07 "Hg19 mi
Weather by CustomWeather, © 2015

See weather overviewHow to use our weather pages